This is the latest recevied weather packets stored in our database for station/object KF7MJQ-10. If no packets are shown the sender has not sent any weather packets the latest 10 day(s).
| Time | Temp. | Humidity | Pressure | Rain* | Wind** | Luminosity | Snow |
|---|---|---|---|---|---|---|---|
| 1778138430 | - | - | 1021.7 hPa | 0 mm | - | - | - |
| 1778138131 | - | - | 1021.6 hPa | 0 mm | - | - | - |
| 1778137825 | - | - | 1021.7 hPa | 0 mm | - | - | - |
| 1778136019 | - | - | 1021.5 hPa | 0 mm | - | - | - |
| 1778132705 | 12.78° C | 1% | 1021.7 hPa | 0 mm | - | - | - |
| 1778132464 | 12.78° C | 1% | 1021.7 hPa | 0 mm | - | - | - |
| 1778119546 | 13.89° C | 1% | 1021.2 hPa | 0 mm | - | - | - |
| 1778118622 | 13.89° C | 1% | 1021.3 hPa | 0 mm | - | - | - |
| 1778117460 | 13.89° C | 1% | 1021.3 hPa | 0 mm | - | - | - |
| 1778116857 | 13.89° C | 1% | 1021.3 hPa | 0 mm | - | - | - |
| 1778116254 | 14.44° C | 1% | 1021.3 hPa | 0 mm | - | - | - |
| 1778114735 | 14.44° C | 1% | 1021.3 hPa | 0 mm | - | - | - |
| 1778114487 | 14.44° C | 1% | 1021.4 hPa | 0 mm | - | - | - |
| 1778112305 | 13.89° C | 1% | 1021.2 hPa | 0 mm | - | - | - |
| 1778111747 | 13.89° C | 1% | 1021.4 hPa | 0 mm | - | - | - |
| 1778111150 | 13.89° C | 1% | 1021.4 hPa | 0 mm | - | - | - |
| 1778110841 | 13.89° C | 1% | 1021.4 hPa | 0 mm | - | - | - |
| 1778108458 | 13.33° C | 1% | 1021.6 hPa | 0 mm | - | - | - |
| 1778105425 | 12.22° C | 1% | 1021.8 hPa | 0 mm | - | - | - |
| 1778100005 | 13.33° C | 1% | 1021.6 hPa | 0 mm | - | - | - |
| 1778099147 | 13.33° C | 1% | 1021.6 hPa | 0 mm | - | - | - |
| 1778097018 | 12.78° C | 1% | 1021.5 hPa | 0 mm | - | - | - |
| 1778096715 | 12.78° C | 1% | 1021.4 hPa | 0 mm | - | - | - |
| 1778092821 | 11.67° C | 1% | 1021 hPa | 0 mm | - | - | - |
| 1778092520 | 11.67° C | 1% | 1021.1 hPa | 0 mm | - | - | - |
* Rain latest hour (hover to see other rain measurements)
** Current wind speed in m/s (hover to see current wind gust speed)